TimeEDT,TemperatureF,Dew PointF,Humidity,Sea Level PressureIn,VisibilityMPH,Wind Direction,Wind SpeedMPH,Gust SpeedMPH,PrecipitationIn,Events,Conditions,WindDirDegrees,DateUTC
12:15 AM,59.0,54.5,85,29.96,10.0,South,3.5,-,N/A,,Clear,190,2013-10-17 04:15:00
12:35 AM,59.0,54.5,85,29.96,10.0,Calm,Calm,-,N/A,,Clear,0,2013-10-17 04:35:00
12:55 AM,59.2,54.5,84,29.96,10.0,South,3.5,-,N/A,,Clear,190,2013-10-17 04:55:00
1:15 AM,59.0,54.7,86,29.96,10.0,South,3.5,-,N/A,Rain,Light Rain,180,2013-10-17 05:15:00
1:35 AM,58.6,54.7,87,29.95,10.0,Calm,Calm,-,N/A,,Overcast,0,2013-10-17 05:35:00
1:55 AM,58.1,54.7,88,29.95,10.0,Calm,Calm,-,N/A,,Scattered Clouds,0,2013-10-17 05:55:00
2:15 AM,58.3,54.5,87,29.95,10.0,Calm,Calm,-,N/A,,Scattered Clouds,0,2013-10-17 06:15:00
2:35 AM,58.6,54.5,86,29.95,10.0,Calm,Calm,-,N/A,,Mostly Cloudy,0,2013-10-17 06:35:00
2:55 AM,58.1,54.5,88,29.94,10.0,Calm,Calm,-,N/A,,Scattered Clouds,0,2013-10-17 06:55:00
3:15 AM,58.3,54.7,88,29.93,10.0,SSE,4.6,-,N/A,,Clear,160,2013-10-17 07:15:00
3:35 AM,58.5,54.7,87,29.93,10.0,Calm,Calm,-,N/A,,Scattered Clouds,0,2013-10-17 07:35:00
3:55 AM,58.6,54.7,87,29.92,10.0,Calm,Calm,-,N/A,,Mostly Cloudy,0,2013-10-17 07:55:00
4:15 AM,59.0,54.9,86,29.93,10.0,Calm,Calm,-,N/A,,Overcast,0,2013-10-17 08:15:00
4:35 AM,59.2,55.0,86,29.93,10.0,Calm,Calm,-,N/A,,Overcast,0,2013-10-17 08:35:00
4:55 AM,59.0,55.0,87,29.93,10.0,Calm,Calm,-,N/A,,Overcast,0,2013-10-17 08:55:00
5:15 AM,59.0,55.2,87,29.93,10.0,Calm,Calm,-,N/A,,Overcast,0,2013-10-17 09:15:00
5:35 AM,59.2,55.4,87,29.93,10.0,Calm,Calm,-,N/A,,Overcast,0,2013-10-17 09:35:00
5:55 AM,59.5,55.4,86,29.93,10.0,Calm,Calm,-,N/A,,Overcast,0,2013-10-17 09:55:00
6:15 AM,57.7,55.0,91,29.93,10.0,Calm,Calm,-,N/A,,Overcast,0,2013-10-17 10:15:00
6:35 AM,58.3,54.9,88,29.94,10.0,Calm,Calm,-,N/A,,Overcast,0,2013-10-17 10:35:00
6:55 AM,57.7,55.2,91,29.93,10.0,Calm,Calm,-,N/A,,Overcast,0,2013-10-17 10:55:00
7:15 AM,58.3,55.0,89,29.93,10.0,Calm,Calm,-,N/A,,Mostly Cloudy,0,2013-10-17 11:15:00
7:35 AM,58.1,55.2,90,29.93,10.0,Calm,Calm,-,N/A,,Mostly Cloudy,0,2013-10-17 11:35:00
7:55 AM,56.3,53.8,91,29.94,5.0,Calm,Calm,-,N/A,,Mostly Cloudy,0,2013-10-17 11:55:00
8:15 AM,57.0,54.9,92,29.94,7.0,Calm,Calm,-,N/A,,Mostly Cloudy,0,2013-10-17 12:15:00
8:35 AM,58.6,56.3,92,29.94,10.0,Calm,Calm,-,N/A,,Mostly Cloudy,0,2013-10-17 12:35:00
8:55 AM,61.7,56.7,84,29.93,10.0,ESE,4.6,-,N/A,,Mostly Cloudy,120,2013-10-17 12:55:00
9:15 AM,62.1,56.8,83,29.94,10.0,Calm,Calm,-,N/A,,Mostly Cloudy,0,2013-10-17 13:15:00
9:35 AM,64.0,56.7,77,29.94,10.0,Calm,Calm,-,N/A,,Overcast,0,2013-10-17 13:35:00
9:55 AM,63.7,56.7,78,29.95,10.0,SSW,3.5,-,N/A,,Overcast,210,2013-10-17 13:55:00
10:15 AM,64.4,57.0,77,29.94,10.0,Calm,Calm,-,N/A,,Overcast,0,2013-10-17 14:15:00
10:35 AM,65.3,57.4,76,29.94,10.0,Calm,Calm,-,N/A,,Overcast,0,2013-10-17 14:35:00
10:55 AM,65.7,57.2,74,29.93,10.0,Calm,Calm,-,N/A,,Overcast,0,2013-10-17 14:55:00
11:15 AM,65.7,57.4,75,29.92,10.0,South,3.5,-,N/A,Rain,Light Rain,170,2013-10-17 15:15:00
11:35 AM,64.9,58.6,80,29.92,10.0,SSE,3.5,-,N/A,Rain,Light Rain,160,2013-10-17 15:35:00
11:55 AM,65.5,59.9,82,29.92,10.0,South,3.5,-,0.01,Rain,Light Rain,180,2013-10-17 15:55:00
12:15 PM,67.3,59.9,77,29.91,10.0,SSW,5.8,-,N/A,,Mostly Cloudy,210,2013-10-17 16:15:00
12:35 PM,67.8,59.0,73,29.90,10.0,SW,6.9,-,N/A,,Mostly Cloudy,220,2013-10-17 16:35:00
12:55 PM,67.8,58.8,73,29.89,10.0,SW,8.1,-,N/A,,Overcast,220,2013-10-17 16:55:00
1:15 PM,67.5,57.9,71,29.89,10.0,SW,8.1,-,N/A,,Overcast,220,2013-10-17 17:15:00
1:35 PM,68.0,58.8,72,29.88,10.0,SW,5.8,-,N/A,,Overcast,220,2013-10-17 17:35:00
1:55 PM,68.0,59.0,73,29.86,10.0,SW,4.6,-,N/A,,Overcast,220,2013-10-17 17:55:00
2:15 PM,68.2,58.5,71,29.85,10.0,South,5.8,-,N/A,,Overcast,170,2013-10-17 18:15:00
2:35 PM,68.2,58.1,70,29.84,10.0,SSE,8.1,-,N/A,,Overcast,160,2013-10-17 18:35:00
2:55 PM,67.3,58.6,74,29.84,10.0,South,4.6,-,N/A,,Overcast,170,2013-10-17 18:55:00
3:15 PM,66.6,59.0,77,29.84,10.0,South,3.5,-,N/A,,Overcast,180,2013-10-17 19:15:00
3:35 PM,66.0,59.9,81,29.83,10.0,South,4.6,-,N/A,,Light Drizzle,170,2013-10-17 19:35:00
3:55 PM,65.7,59.9,82,29.83,10.0,South,3.5,-,N/A,,Overcast,180,2013-10-17 19:55:00
4:15 PM,66.2,59.2,78,29.82,10.0,South,5.8,-,N/A,,Overcast,190,2013-10-17 20:15:00
4:35 PM,67.1,57.9,72,29.81,10.0,South,5.8,-,N/A,,Overcast,190,2013-10-17 20:35:00
4:55 PM,66.6,57.2,72,29.81,10.0,SSW,8.1,-,N/A,,Overcast,200,2013-10-17 20:55:00
5:15 PM,65.8,57.4,74,29.81,10.0,South,6.9,-,N/A,,Overcast,190,2013-10-17 21:15:00
5:35 PM,65.5,57.6,76,29.79,10.0,South,5.8,-,N/A,,Overcast,170,2013-10-17 21:35:00
5:55 PM,65.3,57.7,76,29.79,10.0,SSW,6.9,-,N/A,,Overcast,200,2013-10-17 21:55:00
6:15 PM,65.3,58.1,77,29.79,10.0,South,8.1,-,N/A,,Overcast,180,2013-10-17 22:15:00
6:35 PM,64.8,58.3,79,29.79,10.0,South,5.8,-,N/A,,Overcast,190,2013-10-17 22:35:00
6:55 PM,64.4,58.5,81,29.79,10.0,South,5.8,-,N/A,,Overcast,180,2013-10-17 22:55:00
7:15 PM,63.7,58.6,84,29.80,10.0,SSW,5.8,-,N/A,,Overcast,210,2013-10-17 23:15:00
7:35 PM,63.9,59.0,84,29.80,10.0,SSW,8.1,-,N/A,,Overcast,200,2013-10-17 23:35:00
7:55 PM,63.1,59.4,87,29.81,5.0,South,8.1,-,N/A,,Drizzle,190,2013-10-17 23:55:00
8:15 PM,62.8,59.4,89,29.82,10.0,SSW,5.8,-,N/A,,Overcast,210,2013-10-18 00:15:00
8:35 PM,62.6,59.5,90,29.83,10.0,South,5.8,-,N/A,,Overcast,180,2013-10-18 00:35:00
8:55 PM,62.6,59.2,89,29.84,10.0,SSW,6.9,-,N/A,,Mostly Cloudy,210,2013-10-18 00:55:00
9:15 PM,60.8,57.7,90,29.84,10.0,WSW,6.9,-,N/A,,Clear,240,2013-10-18 01:15:00
9:35 PM,63.3,51.8,66,29.85,10.0,West,10.4,16.1,N/A,,Clear,260,2013-10-18 01:35:00
9:55 PM,62.6,50.2,64,29.87,10.0,West,5.8,17.3,N/A,,Clear,270,2013-10-18 01:55:00
10:15 PM,61.5,50.5,67,29.88,10.0,WNW,5.8,-,N/A,,Clear,290,2013-10-18 02:15:00
10:35 PM,61.3,50.0,66,29.88,10.0,West,6.9,-,N/A,,Clear,260,2013-10-18 02:35:00
10:55 PM,61.0,48.9,64,29.89,10.0,WNW,11.5,17.3,N/A,,Clear,290,2013-10-18 02:55:00
11:15 PM,60.3,48.9,66,29.89,10.0,WNW,16.1,19.6,N/A,,Clear,300,2013-10-18 03:15:00
11:35 PM,59.9,48.2,65,29.91,10.0,West,12.7,-,N/A,,Scattered Clouds,280,2013-10-18 03:35:00
11:55 PM,58.6,48.0,68,29.91,10.0,West,4.6,-,N/A,,Scattered Clouds,260,2013-10-18 03:55:00